Year,Month,Day,Hour,Minute,Value (Times are PST for windspeed in km/hr)
2012,04,14,07,50,3.20
2012,04,14,07,51,3.40
2012,04,14,07,52,7.40
2012,04,14,07,53,6.40
2012,04,14,07,54,5.70
2012,04,14,07,55,4.10
2012,04,14,07,56,6.90
2012,04,14,07,57,4.70
2012,04,14,07,58,3.40
2012,04,14,07,59,3.60
2012,04,14,08,00,6.70
2012,04,14,08,01,4.20
2012,04,14,08,02,3.10
2012,04,14,08,03,6.40
2012,04,14,08,04,5.20
2012,04,14,08,05,5.20
2012,04,14,08,06,1.40
2012,04,14,08,07,1.00
2012,04,14,08,08,2.30
2012,04,14,08,09,6.40
2012,04,14,08,10,5.20
2012,04,14,08,11,2.10
2012,04,14,08,12,3.00
2012,04,14,08,13,1.90
2012,04,14,08,14,8.40
2012,04,14,08,15,7.40
2012,04,14,08,16,6.90
2012,04,14,08,17,7.40
2012,04,14,08,18,7.60
2012,04,14,08,19,3.40
2012,04,14,08,20,6.10
2012,04,14,08,21,4.60
2012,04,14,08,22,1.90
2012,04,14,08,23,4.30
2012,04,14,08,24,8.10
2012,04,14,08,25,9.50
2012,04,14,08,26,8.60
2012,04,14,08,27,5.50
2012,04,14,08,28,8.80
2012,04,14,08,29,11.30
2012,04,14,08,30,8.60
2012,04,14,08,31,9.10
2012,04,14,08,32,9.00
2012,04,14,08,33,9.30
2012,04,14,08,34,10.10
2012,04,14,08,35,8.80
2012,04,14,08,36,10.90
2012,04,14,08,37,8.70
2012,04,14,08,38,9.50
2012,04,14,08,39,13.70
2012,04,14,08,40,6.50
2012,04,14,08,41,10.90
2012,04,14,08,42,7.60
2012,04,14,08,43,8.10
2012,04,14,08,44,9.10
2012,04,14,08,45,10.90
2012,04,14,08,46,11.80
2012,04,14,08,47,8.50
2012,04,14,08,48,6.10
2012,04,14,08,49,8.60
2012,04,14,08,50,9.80
2012,04,14,08,51,8.10
2012,04,14,08,52,11.60
2012,04,14,08,53,10.80
2012,04,14,08,54,3.90
2012,04,14,08,55,5.20
2012,04,14,08,56,6.70
2012,04,14,08,57,8.30
2012,04,14,08,58,8.70
2012,04,14,08,59,10.30
2012,04,14,09,00,11.70
2012,04,14,09,01,7.70
2012,04,14,09,02,13.70
2012,04,14,09,03,8.80
2012,04,14,09,04,6.50
2012,04,14,09,05,15.80
2012,04,14,09,06,9.30
2012,04,14,09,07,9.50
2012,04,14,09,08,10.30
2012,04,14,09,09,4.40
2012,04,14,09,10,8.90
2012,04,14,09,11,10.80
2012,04,14,09,12,10.10
2012,04,14,09,13,9.20
2012,04,14,09,14,5.60
2012,04,14,09,15,5.80
2012,04,14,09,16,7.00
2012,04,14,09,17,10.00
2012,04,14,09,18,12.60
2012,04,14,09,19,9.70
2012,04,14,09,20,10.60
2012,04,14,09,21,9.10
2012,04,14,09,22,9.70
2012,04,14,09,23,12.40
2012,04,14,09,24,10.50
2012,04,14,09,25,6.70
2012,04,14,09,26,4.70
2012,04,14,09,27,8.70
2012,04,14,09,28,5.50
2012,04,14,09,29,5.60
2012,04,14,09,30,6.70
2012,04,14,09,31,10.10
2012,04,14,09,32,11.70
2012,04,14,09,33,13.20
2012,04,14,09,34,10.10
2012,04,14,09,35,10.70
2012,04,14,09,36,9.90
2012,04,14,09,37,8.40
2012,04,14,09,38,7.10
2012,04,14,09,39,11.90
2012,04,14,09,40,10.50
2012,04,14,09,41,10.50
2012,04,14,09,42,7.10
2012,04,14,09,43,9.00
2012,04,14,09,44,7.70
2012,04,14,09,45,12.90
2012,04,14,09,46,5.40
2012,04,14,09,47,9.20
2012,04,14,09,48,5.40
2012,04,14,09,49,4.90
2012,04,14,09,50,4.70
2012,04,14,09,51,11.20
2012,04,14,09,52,7.10
2012,04,14,09,53,5.60
2012,04,14,09,54,4.80
2012,04,14,09,55,4.10
2012,04,14,09,56,3.80
2012,04,14,09,57,11.80
2012,04,14,09,58,8.70
2012,04,14,09,59,11.00
2012,04,14,10,00,13.00
2012,04,14,10,01,8.40
2012,04,14,10,02,7.90
2012,04,14,10,03,8.40
2012,04,14,10,04,9.80
2012,04,14,10,05,8.10
2012,04,14,10,06,5.50
2012,04,14,10,07,5.50
2012,04,14,10,08,5.80
2012,04,14,10,09,6.20
2012,04,14,10,10,10.40
2012,04,14,10,11,12.40
2012,04,14,10,12,6.90
2012,04,14,10,13,10.20
2012,04,14,10,14,10.60
2012,04,14,10,15,9.60
2012,04,14,10,16,5.40
2012,04,14,10,17,9.20
2012,04,14,10,18,9.70
2012,04,14,10,19,10.70
2012,04,14,10,20,6.40
2012,04,14,10,21,8.30
2012,04,14,10,22,8.40
2012,04,14,10,23,9.30
2012,04,14,10,24,6.00
2012,04,14,10,25,7.20
2012,04,14,10,26,4.60
2012,04,14,10,27,6.30
2012,04,14,10,28,6.40
2012,04,14,10,29,7.00
2012,04,14,10,30,7.60
2012,04,14,10,31,9.10
2012,04,14,10,32,10.80
2012,04,14,10,33,7.80
2012,04,14,10,34,8.90
2012,04,14,10,35,9.70
2012,04,14,10,36,10.60
2012,04,14,10,37,11.20
2012,04,14,10,38,7.60
2012,04,14,10,39,8.60
2012,04,14,10,40,8.20
2012,04,14,10,41,2.60
2012,04,14,10,42,5.90
2012,04,14,10,43,8.90
2012,04,14,10,44,9.60
2012,04,14,10,45,5.90
2012,04,14,10,46,6.00
2012,04,14,10,47,9.30
2012,04,14,10,48,11.90
2012,04,14,10,49,11.20
2012,04,14,10,50,9.60
2012,04,14,10,51,6.60
2012,04,14,10,52,8.10
2012,04,14,10,53,7.60
2012,04,14,10,54,12.00
2012,04,14,10,55,13.00
2012,04,14,10,56,14.20
2012,04,14,10,57,9.10
2012,04,14,10,58,8.70
2012,04,14,10,59,7.50
2012,04,14,11,00,7.00
2012,04,14,11,01,11.70
2012,04,14,11,02,15.80
2012,04,14,11,03,11.60
2012,04,14,11,04,9.20
2012,04,14,11,05,9.30
2012,04,14,11,06,4.20
2012,04,14,11,07,8.90
2012,04,14,11,08,7.40
2012,04,14,11,09,13.20
2012,04,14,11,10,13.60
2012,04,14,11,11,10.30
2012,04,14,11,12,15.60
2012,04,14,11,13,12.40
2012,04,14,11,14,14.40
2012,04,14,11,15,13.20
2012,04,14,11,16,9.30
2012,04,14,11,17,11.20
2012,04,14,11,18,6.00
2012,04,14,11,19,5.70
2012,04,14,11,20,5.70
2012,04,14,11,21,12.40
2012,04,14,11,22,5.90
2012,04,14,11,23,7.70
2012,04,14,11,24,11.40
2012,04,14,11,25,9.10
2012,04,14,11,26,8.90
2012,04,14,11,27,9.30
2012,04,14,11,28,10.10
2012,04,14,11,29,5.80
2012,04,14,11,30,8.00
2012,04,14,11,31,6.40
2012,04,14,11,32,8.40
2012,04,14,11,33,9.30
2012,04,14,11,34,7.10
2012,04,14,11,35,10.30
2012,04,14,11,36,10.40
2012,04,14,11,37,9.30
2012,04,14,11,38,11.40
2012,04,14,11,39,11.40
2012,04,14,11,40,9.60
2012,04,14,11,41,9.40
2012,04,14,11,42,12.00
2012,04,14,11,43,12.60
2012,04,14,11,44,9.60
2012,04,14,11,45,11.80
2012,04,14,11,46,10.90
2012,04,14,11,47,11.30
2012,04,14,11,48,12.40
2012,04,14,11,49,14.50
2012,04,14,11,50,13.60
2012,04,14,11,51,13.20
2012,04,14,11,52,11.70
2012,04,14,11,53,13.60
2012,04,14,11,54,12.20
2012,04,14,11,55,8.90
2012,04,14,11,56,6.80
2012,04,14,11,57,8.90
2012,04,14,11,58,9.20
2012,04,14,11,59,13.40
2012,04,14,12,00,5.90
2012,04,14,12,01,6.80
2012,04,14,12,02,8.80
2012,04,14,12,03,8.00
2012,04,14,12,04,7.40
2012,04,14,12,05,8.80
2012,04,14,12,06,10.10
2012,04,14,12,07,7.40
2012,04,14,12,08,9.70
2012,04,14,12,09,9.90
2012,04,14,12,10,9.60
2012,04,14,12,11,8.30
2012,04,14,12,12,10.80
2012,04,14,12,13,6.80
2012,04,14,12,14,9.50
2012,04,14,12,15,13.30
2012,04,14,12,16,12.70
2012,04,14,12,17,9.30
2012,04,14,12,18,10.30
2012,04,14,12,19,9.50
2012,04,14,12,20,10.70
2012,04,14,12,21,6.30
2012,04,14,12,22,10.30
2012,04,14,12,23,16.50
2012,04,14,12,24,11.80
2012,04,14,12,25,11.00
2012,04,14,12,26,10.30
2012,04,14,12,27,5.10
2012,04,14,12,28,8.70
2012,04,14,12,29,8.00
2012,04,14,12,30,7.20
2012,04,14,12,31,8.60
2012,04,14,12,32,7.50
2012,04,14,12,33,7.10
2012,04,14,12,34,11.40
2012,04,14,12,35,8.10
2012,04,14,12,36,12.80
2012,04,14,12,37,5.20
2012,04,14,12,38,8.80
2012,04,14,12,39,5.50
2012,04,14,12,40,8.70
2012,04,14,12,41,9.30
2012,04,14,12,42,8.90
2012,04,14,12,43,10.30
2012,04,14,12,44,9.70
2012,04,14,12,45,7.60
2012,04,14,12,46,10.20
2012,04,14,12,47,10.30
2012,04,14,12,48,9.70
2012,04,14,12,49,8.10
2012,04,14,12,50,7.60
2012,04,14,12,51,9.90
2012,04,14,12,52,8.50
2012,04,14,12,53,9.30
2012,04,14,12,54,9.80
2012,04,14,12,55,10.30
2012,04,14,12,56,6.20
2012,04,14,12,57,8.40
2012,04,14,12,58,7.10
2012,04,14,12,59,3.90
2012,04,14,13,00,6.90
2012,04,14,13,01,5.20
2012,04,14,13,02,5.80
2012,04,14,13,03,7.30
2012,04,14,13,04,7.70
2012,04,14,13,05,8.00
2012,04,14,13,06,7.10
2012,04,14,13,07,4.70
2012,04,14,13,08,6.30
2012,04,14,13,09,10.50
2012,04,14,13,10,6.60
2012,04,14,13,11,5.60
2012,04,14,13,12,9.30
2012,04,14,13,13,9.20
2012,04,14,13,14,12.50
2012,04,14,13,15,9.60
2012,04,14,13,16,7.50
2012,04,14,13,17,11.30
2012,04,14,13,18,6.50
2012,04,14,13,19,4.70
2012,04,14,13,20,11.30
2012,04,14,13,21,9.20
2012,04,14,13,22,4.20
2012,04,14,13,23,4.00
2012,04,14,13,24,7.20
2012,04,14,13,25,2.80
2012,04,14,13,26,2.00
2012,04,14,13,27,4.70
2012,04,14,13,28,6.30
2012,04,14,13,29,8.10
2012,04,14,13,30,7.20
2012,04,14,13,31,4.60
2012,04,14,13,32,7.60
2012,04,14,13,33,6.20
2012,04,14,13,34,7.70
2012,04,14,13,35,9.00
2012,04,14,13,36,6.70
2012,04,14,13,37,4.20
2012,04,14,13,38,7.90
2012,04,14,13,39,6.90
2012,04,14,13,40,7.70
2012,04,14,13,41,8.40
2012,04,14,13,42,8.20
2012,04,14,13,43,7.00
2012,04,14,13,44,5.60
2012,04,14,13,45,5.70
2012,04,14,13,46,7.00
2012,04,14,13,47,7.00
2012,04,14,13,48,4.40
2012,04,14,13,49,7.50
2012,04,14,13,50,6.10
2012,04,14,13,51,7.40
2012,04,14,13,52,7.10
2012,04,14,13,53,8.00
2012,04,14,13,54,6.50
2012,04,14,13,55,6.80
2012,04,14,13,56,8.10
2012,04,14,13,57,7.40
2012,04,14,13,58,6.20
2012,04,14,13,59,5.60
2012,04,14,14,00,6.00
2012,04,14,14,01,8.20
2012,04,14,14,02,9.30
2012,04,14,14,03,8.50
2012,04,14,14,04,7.20
2012,04,14,14,05,8.30
2012,04,14,14,06,11.00
2012,04,14,14,07,2.40
2012,04,14,14,08,5.40
2012,04,14,14,09,8.20
2012,04,14,14,10,5.30
2012,04,14,14,11,7.90
2012,04,14,14,12,5.60
2012,04,14,14,13,5.40
2012,04,14,14,14,5.80
2012,04,14,14,15,6.70
2012,04,14,14,16,4.00
2012,04,14,14,17,7.20
2012,04,14,14,18,5.00
2012,04,14,14,19,6.20
2012,04,14,14,20,1.50
2012,04,14,14,21,8.00
2012,04,14,14,22,4.10
2012,04,14,14,23,2.40
2012,04,14,14,24,1.60
2012,04,14,14,25,5.80
2012,04,14,14,26,7.50
2012,04,14,14,27,2.70
2012,04,14,14,28,4.70
2012,04,14,14,29,7.50
2012,04,14,14,30,7.20
2012,04,14,14,31,6.00
2012,04,14,14,32,5.70
2012,04,14,14,33,7.40
2012,04,14,14,34,4.50
2012,04,14,14,35,7.00
2012,04,14,14,36,7.70
2012,04,14,14,37,5.00
2012,04,14,14,38,7.30
2012,04,14,14,39,5.90
2012,04,14,14,40,2.90
2012,04,14,14,41,4.50
2012,04,14,14,42,7.20
2012,04,14,14,43,6.80
2012,04,14,14,44,3.40
2012,04,14,14,45,5.90
2012,04,14,14,46,5.10
2012,04,14,14,47,7.90
2012,04,14,14,48,7.70
2012,04,14,14,49,7.70
2012,04,14,14,50,8.00
2012,04,14,14,51,4.80
2012,04,14,14,52,4.60
2012,04,14,14,53,6.20
2012,04,14,14,54,9.90
2012,04,14,14,55,4.30
2012,04,14,14,56,3.50
2012,04,14,14,57,5.60
2012,04,14,14,58,7.30
2012,04,14,14,59,7.20
2012,04,14,15,00,6.00
2012,04,14,15,01,7.00
2012,04,14,15,02,1.60
2012,04,14,15,03,3.90
2012,04,14,15,04,4.00
2012,04,14,15,05,4.00
2012,04,14,15,06,8.30
2012,04,14,15,07,8.10
2012,04,14,15,08,2.50
2012,04,14,15,09,8.30
2012,04,14,15,10,6.30
2012,04,14,15,11,7.20
2012,04,14,15,12,6.40
2012,04,14,15,13,6.90
2012,04,14,15,14,6.00
2012,04,14,15,15,2.70
2012,04,14,15,16,5.20
2012,04,14,15,17,5.10
2012,04,14,15,18,6.70
2012,04,14,15,19,7.20
2012,04,14,15,20,7.10
2012,04,14,15,21,4.20
2012,04,14,15,22,7.70
2012,04,14,15,23,7.60
2012,04,14,15,24,7.90
2012,04,14,15,25,4.10
2012,04,14,15,26,5.20
2012,04,14,15,27,4.00
2012,04,14,15,28,3.60
2012,04,14,15,29,6.00
2012,04,14,15,30,8.40
2012,04,14,15,31,1.70
2012,04,14,15,32,3.10
2012,04,14,15,33,4.10
2012,04,14,15,34,5.60
2012,04,14,15,35,4.00
2012,04,14,15,36,5.60
2012,04,14,15,37,5.80
2012,04,14,15,38,7.60
2012,04,14,15,39,9.60
2012,04,14,15,40,7.20
2012,04,14,15,41,8.10
2012,04,14,15,42,3.20
2012,04,14,15,43,6.00
2012,04,14,15,44,5.20
2012,04,14,15,45,6.50
2012,04,14,15,46,6.50
2012,04,14,15,47,8.90
2012,04,14,15,48,5.20
2012,04,14,15,49,6.00
2012,04,14,15,50,10.90
2012,04,14,15,51,8.70
2012,04,14,15,52,7.50
2012,04,14,15,53,6.30
2012,04,14,15,54,6.40
2012,04,14,15,55,4.60
2012,04,14,15,56,6.90
2012,04,14,15,57,7.30
2012,04,14,15,58,8.10
2012,04,14,15,59,5.40
2012,04,14,16,00,7.10
2012,04,14,16,01,6.10
2012,04,14,16,02,2.90
2012,04,14,16,03,2.10
2012,04,14,16,04,1.60
2012,04,14,16,05,2.70
2012,04,14,16,06,2.80
2012,04,14,16,07,4.50
2012,04,14,16,08,4.30
2012,04,14,16,09,5.70
2012,04,14,16,10,5.90
2012,04,14,16,11,5.70
2012,04,14,16,12,1.60
2012,04,14,16,13,3.10
2012,04,14,16,14,5.10
2012,04,14,16,15,2.70
2012,04,14,16,16,1.70
2012,04,14,16,17,3.90
2012,04,14,16,18,5.50
2012,04,14,16,19,7.50
2012,04,14,16,20,1.60
2012,04,14,16,21,7.60
2012,04,14,16,22,6.00
2012,04,14,16,23,4.70
2012,04,14,16,24,1.80
2012,04,14,16,25,4.30
2012,04,14,16,26,6.40
2012,04,14,16,27,6.70
2012,04,14,16,28,6.00
2012,04,14,16,29,7.20
2012,04,14,16,30,6.80
2012,04,14,16,31,5.50
2012,04,14,16,32,8.10
2012,04,14,16,33,7.60
2012,04,14,16,34,6.90
2012,04,14,16,35,6.50
2012,04,14,16,36,7.30
2012,04,14,16,37,9.30
2012,04,14,16,38,5.00
2012,04,14,16,39,4.70
2012,04,14,16,40,8.40
2012,04,14,16,41,8.60
2012,04,14,16,42,7.60
2012,04,14,16,43,8.60
2012,04,14,16,44,8.30
2012,04,14,16,45,8.50
2012,04,14,16,46,8.50
2012,04,14,16,47,6.10
2012,04,14,16,48,7.50
2012,04,14,16,49,7.80
2012,04,14,16,50,8.60
2012,04,14,16,51,6.10
2012,04,14,16,52,7.20
2012,04,14,16,53,4.90
2012,04,14,16,54,6.90
2012,04,14,16,55,9.20
2012,04,14,16,56,9.50
2012,04,14,16,57,7.70
2012,04,14,16,58,6.90
2012,04,14,16,59,4.60
2012,04,14,17,00,9.40
2012,04,14,17,01,7.60
2012,04,14,17,02,7.90
2012,04,14,17,03,7.90
2012,04,14,17,04,6.60
2012,04,14,17,05,6.50
2012,04,14,17,06,4.50
2012,04,14,17,07,2.90
2012,04,14,17,08,4.50
2012,04,14,17,09,3.10
2012,04,14,17,10,5.30
2012,04,14,17,11,6.40
2012,04,14,17,12,7.40
2012,04,14,17,13,6.80
2012,04,14,17,14,2.90
2012,04,14,17,15,5.80
2012,04,14,17,16,5.10
2012,04,14,17,17,6.20
2012,04,14,17,18,6.80
2012,04,14,17,19,2.80
2012,04,14,17,20,3.10
2012,04,14,17,21,3.70
2012,04,14,17,22,4.00
2012,04,14,17,23,4.40
2012,04,14,17,24,5.40
2012,04,14,17,25,5.70
2012,04,14,17,26,3.90
2012,04,14,17,27,2.00
2012,04,14,17,28,0.80
2012,04,14,17,29,0.80
2012,04,14,17,30,3.90
2012,04,14,17,31,4.40
2012,04,14,17,32,5.30
2012,04,14,17,33,6.60
2012,04,14,17,34,5.20
2012,04,14,17,35,5.70
2012,04,14,17,36,6.70
2012,04,14,17,37,6.80
2012,04,14,17,38,6.30
2012,04,14,17,39,7.30
2012,04,14,17,40,6.80
2012,04,14,17,41,6.10
2012,04,14,17,42,3.60
2012,04,14,17,43,4.40
2012,04,14,17,44,5.70
2012,04,14,17,45,5.20
2012,04,14,17,46,5.10
2012,04,14,17,47,4.30
2012,04,14,17,48,6.10
2012,04,14,17,49,5.70
2012,04,14,17,50,2.50
2012,04,14,17,51,6.60
2012,04,14,17,52,6.10
2012,04,14,17,53,6.00
2012,04,14,17,54,3.10
2012,04,14,17,55,4.70
2012,04,14,17,56,4.00
2012,04,14,17,57,6.40
2012,04,14,17,58,4.50
2012,04,14,17,59,6.30
2012,04,14,18,00,7.40
2012,04,14,18,01,5.00
2012,04,14,18,02,4.00
2012,04,14,18,03,0.30
2012,04,14,18,04,5.10
2012,04,14,18,05,5.30
2012,04,14,18,06,5.50
2012,04,14,18,07,3.40
2012,04,14,18,08,2.00
2012,04,14,18,09,3.70
2012,04,14,18,10,4.70
2012,04,14,18,11,6.30
2012,04,14,18,12,5.80
2012,04,14,18,13,7.50
2012,04,14,18,14,6.40
2012,04,14,18,15,6.80
2012,04,14,18,16,5.60
2012,04,14,18,17,4.70
2012,04,14,18,18,3.10
2012,04,14,18,19,2.10
2012,04,14,18,20,2.60
2012,04,14,18,21,3.50
2012,04,14,18,22,4.10
2012,04,14,18,23,3.50
2012,04,14,18,24,2.70
2012,04,14,18,25,4.60
2012,04,14,18,26,4.60
2012,04,14,18,27,5.50
2012,04,14,18,28,5.40
2012,04,14,18,29,4.70
2012,04,14,18,30,6.20
2012,04,14,18,31,3.30
2012,04,14,18,32,3.20
2012,04,14,18,33,3.20
2012,04,14,18,34,3.20
2012,04,14,18,35,3.20
2012,04,14,18,36,3.20
2012,04,14,18,37,3.20
2012,04,14,18,38,3.20
2012,04,14,18,39,3.20
2012,04,14,18,40,3.20
2012,04,14,18,41,3.20
2012,04,14,18,42,3.20
